Miscellaneous Local Product
Issued by NWS Hastings, NE

Home | Current Version | Previous Version | Text Only | Print | Product List | Glossary On
Versions: 1 2 3 4 5 6 7 8 9 10 11 12 13 14 15 16 17 18 19 20 21 22 23 24 25 26 27 28 29 30 31 32 33 34 35 36 37 38 39 40 41 42 43 44 45 46 47 48 49 50
982
AXUS43 KGID 272202
MISGRI

GID CWA HOURLY WEATHER ROUNDUP
NATIONAL WEATHER SERVICE HASTINGS NE
500 PM CDT MON MAR 27 2017

NOTE: "FAIR" INDICATES FEW OR NO CLOUDS BELOW 12,000 FEET WITH NO
SIGNIFICANT WEATHER AND/OR OBSTRUCTIONS TO VISIBILITY.

...SOUTH CENTRAL NEBRASKA...

CITY           SKY/WX    TMP DP  RH WIND       PRES   REMARKS
GRAND ISLAND   MOSUNNY   53  42  66 VRB3      29.94F
HASTINGS       MOSUNNY   51  42  71 SE5       29.94F
KEARNEY        MOSUNNY   55  43  62 E7        29.92F
ORD            SUNNY     58  41  53 CALM      29.90F
YORK           CLOUDY    52  41  66 CALM      29.95S
AURORA         CLOUDY    53  43  68 CALM      29.95S
LEXINGTON      SUNNY     58  43  57 E9G16     29.90S
HOLDREGE       SUNNY     59  42  54 E3        29.90F
HEBRON         CLOUDY    50  42  75 N3        29.95F

...NEBRASKA PANHANDLE...

CITY           SKY/WX    TMP DP  RH WIND       PRES   REMARKS
CHADRON        MOSUNNY   65  30  27 N8        29.78F
ALLIANCE       CLOUDY    63  29  27 SW9       29.79F
SCOTTSBLUFF    CLOUDY    64  27  24 S7        29.79F
SIDNEY         CLOUDY    61  32  33 S13       29.83F

...WESTERN AND NORTH CENTRAL NEBRASKA...

CITY           SKY/WX    TMP DP  RH WIND       PRES   REMARKS
VALENTINE      PTSUNNY   60  35  39 VRB5      29.85F
AINSWORTH      SUNNY     60  42  50 S5        29.88S
ONEILL         SUNNY     61  39  44 SE9       29.90F
BROKEN BOW     MOSUNNY   57  43  59 SE10      29.89F
IMPERIAL       MOSUNNY   63  34  33 S7        29.84F
NORTH PLATTE   SUNNY     65  37  35 SE7       29.85F
MCCOOK         MOSUNNY   65  46  50 E17G24    29.85F

...EASTERN NEBRASKA...

CITY           SKY/WX    TMP DP  RH WIND       PRES   REMARKS
NORFOLK        SUNNY     58  37  45 CALM      29.92S
SO SIOUX CITY  MOSUNNY   57  40  52 E8        29.93F
TEKAMAH        CLOUDY    53  41  63 E5        29.95S
COLUMBUS       PTSUNNY   57  41  54 E6        29.94F
ALBION         SUNNY     58  37  44 E5        29.92F
OMAHA EPPLEY   CLOUDY    51  40  65 N3        29.96R
OFFUTT AFB     CLOUDY    50  40  68 VRB3      29.95S
MILLARD        CLOUDY    52  42  69 CALM      29.96S
LINCOLN        MOSUNNY   55  39  54 VRB3      29.96F
NEBRASKA CITY  CLOUDY    49  39  67 NE8       29.96R
BEATRICE       CLOUDY    53  43  68 NW3       29.95F
FALLS CITY     CLOUDY    54  44  69 N6        29.94S

...NORTHERN KANSAS...

CITY           SKY/WX    TMP DP  RH WIND       PRES   REMARKS
GOODLAND       SUNNY     65  35  33 SE9       29.85F
HILL CITY      SUNNY     63  43  48 SE6       29.89F
NORTON         CLEAR     59  41  51 E5        29.89
PHILLIPSBURG   SUNNY     63  43  48 E5        29.90F
HAYS             N/A     63  42  46 VRB3      29.90
RUSSELL        SUNNY     63  40  42 NE7       29.89S
CONCORDIA      CLOUDY    55  47  74 NE5       29.93F
SALINA         CLOUDY    55  46  71 NE6       29.94F
TOPEKA         CLOUDY    57  49  74 NW7       29.92F



USA.gov is the U.S. government's official web portal to all federal, state and local government web resources and services.